GPS BIIF-2 (PRN 01)

Last updated on July 6, 2021, 3:39 p.m. UTC

1 37753U 11036A   21186.49292757 -.00000080  00000-0  00000+0 0  9997
2 37753  56.4256  42.2410 0108413  48.9393 313.6660  2.00563509 73017
UTC
Height (km)
Latitude
Longitude
Inclination
Orbital Period
UTC large
Height (km)
Speed (km/s)
/
Latitude / Longitude
Inclination (degrees)
Orbital Period (minutes)
Azimuth
Elevation
Range (km)
Doppler Factor
iOS Compass Heading
iOS Angle